Content
SEND FEEDBACK

Daily
Averages
Monthly
Summary
United States of America

MILAN, MINNESOTA


Home > North America > United States > Minnesota
Elevation: 1005 feet     Latitude: 45 07N     Longitude: 095 55W

WEATHER
 
SELECT A DAY
Number of Records: 277,049;   Date Range: 10/21/96 - 8/30/14
 
SHARE

PRINT THIS DATA

[ ← Previous Day ]
WEATHER ALMANAC - FEBRUARY 13, 2013
[ Next Day → ]
[ °C ]   °F
Weather ElementAverageHighLow
Temperature28.4 °F37.4 °F (1:53 pm)17.6 °F (12:33 am)
Dewpoint24.6 °F32 °F (4:13 pm)15.8 °F (12:33 am)
Humidity86.2 %93 % (12:33 am)65 % (1:13 pm)
Barometer29.67 in29.80 in (12:33 am)29.56 in (5:13 pm)
Wind Speed7.4 mph19.6 mph (11:54 pm)
Wind Gust24.2 mph (8:54 pm)
Weather ElementAverage
Visibility7.9 mi
Wind DirectionSW (223 °)

Weather ElementTotal
Precipitation0.27 in
Heating Degree Days37.5 (Base 65)
Averaged from 69 records on February 13, 2013
WEATHER CONDITIONS BREAKOUT
WIND DIRECTION BREAKOUT
WEATHER BY HOUR - FEBRUARY 13, 2013
[ °C ]   °F
Local TimeTemperatureDewpointHumidityBarometerVisibilityWind DirectionWind SpeedGust SpeedPrecipitationEventsConditions
12:33 AM17.6 °F15.8 °F93 %29.80 in10.0 miSW (230°)5.8 mphOvercast
12:53 AM19.4 °F15.8 °F86 %29.80 in10.0 miWSW (240°)6.9 mphOvercast
1:13 AM19.4 °F15.8 °F86 %29.79 in10.0 miWSW (250°)8.1 mphOvercast
1:33 AM17.6 °F15.8 °F93 %29.79 in10.0 miWSW (240°)5.8 mphScattered Clouds
1:53 AM17.6 °F15.8 °F93 %29.79 in10.0 miWest (270°)6.9 mphClear
2:13 AM17.6 °F15.8 °F93 %29.79 in10.0 miWSW (250°)8.1 mphScattered Clouds
2:33 AM17.6 °F15.8 °F93 %29.78 in10.0 miWSW (240°)6.9 mphMostly Cloudy
2:54 AM19.4 °F17.6 °F93 %29.78 in10.0 miWSW (250°)5.8 mphMostly Cloudy
3:13 AM19.4 °F17.6 °F93 %29.77 in10.0 miWSW (250°)4.6 mphOvercast
3:33 AM19.4 °F17.6 °F93 %29.77 in10.0 miWSW (250°)3.5 mphOvercast
3:54 AM19.4 °F17.6 °F93 %29.76 in10.0 miWSW (250°)3.5 mphOvercast
4:13 AM21.2 °F19.4 °F93 %29.76 in10.0 miWSW (240°)4.6 mphOvercast
4:33 AM24.8 °F21.2 °F86 %29.75 in10.0 miSW (220°)3.5 mphOvercast
4:53 AM24.8 °F21.2 °F86 %29.75 in10.0 miSW (220°)3.5 mphOvercast
5:13 AM26.6 °F21.2 °F80 %29.73 in10.0 miSSW (200°)6.9 mphOvercast
5:34 AM26.6 °F21.2 °F80 %29.72 in10.0 miSouth (190°)4.6 mphOvercast
5:53 AM26.6 °F23.0 °F86 %29.71 in10.0 miSouth (190°)4.6 mphOvercast
6:13 AM26.6 °F21.2 °F80 %29.71 in10.0 miSW (220°)4.6 mphMostly Cloudy
6:33 AM24.8 °F21.2 °F86 %29.70 in10.0 miSSW (210°)4.6 mphScattered Clouds
6:54 AM24.8 °F19.4 °F80 %29.70 in10.0 miSW (220°)4.6 mphClear
7:13 AM21.2 °F19.4 °F93 %29.70 in10.0 miSSW (210°)4.6 mphClear
7:33 AM23.0 °F21.2 °F93 %29.70 in10.0 miSW (230°)3.5 mphClear
7:54 AM21.2 °F17.6 °F86 %29.70 in10.0 miSW (230°)4.6 mphClear
8:13 AM23.0 °F19.4 °F86 %29.70 in10.0 miWSW (240°)4.6 mphClear
8:33 AM24.8 °F19.4 °F80 %29.70 in10.0 miWSW (240°)4.6 mphClear
8:54 AM26.6 °F19.4 °F74 %29.70 in10.0 miCalmClear
9:14 AM24.8 °F19.4 °F80 %29.69 in10.0 miSW (220°)4.6 mphClear
9:34 AM26.6 °F21.2 °F80 %29.68 in10.0 miSSW (200°)3.5 mphClear
9:54 AM30.2 °F21.2 °F69 %29.68 in10.0 miSouth (190°)4.6 mphMostly Cloudy
10:13 AM30.2 °F23.0 °F75 %29.67 in10.0 miSouth (190°)3.5 mphOvercast
10:34 AM30.2 °F23.0 °F75 %29.67 in10.0 miSouth (190°)3.5 mphOvercast
11:13 AM32.0 °F24.8 °F75 %29.67 in10.0 miSW (220°)4.6 mphMostly Cloudy
11:33 AM33.8 °F24.8 °F70 %29.67 in10.0 miCalmScattered Clouds
11:53 AM33.8 °F24.8 °F70 %29.66 in10.0 miCalm0.01 inScattered Clouds
12:13 PM35.6 °F26.6 °F70 %29.65 in10.0 miWSW (240°)3.5 mph0.01 inScattered Clouds
12:53 PM35.6 °F26.6 °F70 %29.64 in10.0 miSW (220°)4.6 mph0.04 inClear
1:13 PM35.6 °F24.8 °F65 %29.62 in10.0 miCalm0.01 inScattered Clouds
1:33 PM35.6 °F26.6 °F70 %29.62 in10.0 miWSW (240°)3.5 mph0.03 inScattered Clouds
1:53 PM37.4 °F28.4 °F70 %29.61 in10.0 miCalm0.04 inClear
2:13 PM35.6 °F28.4 °F75 %29.59 in1.5 miSSE (160°)4.6 mph0.01 inSnowLight Snow
2:34 PM33.8 °F30.2 °F87 %29.58 in1.0 miSE (130°)5.8 mph0.01 inSnowLight Snow
2:53 PM33.8 °F30.2 °F87 %29.57 in7.0 miESE (120°)5.8 mph0.03 inSnowLight Snow
3:14 PM33.8 °F30.2 °F87 %29.57 in5.0 miSE (130°)5.8 mph0.01 inRainLight Rain
3:34 PM33.8 °F30.2 °F87 %29.57 in1.5 miSouth (190°)6.9 mph0.01 inSnowLight Snow
3:53 PM33.8 °F30.2 °F87 %29.58 in1.5 miSSW (200°)8.1 mph0.02 inSnowLight Snow
4:13 PM33.8 °F32.0 °F93 %29.57 in2.0 miSouth (190°)8.1 mphSnowLight Snow
4:33 PM33.8 °F32.0 °F93 %29.57 in1.0 miSSW (200°)6.9 mph0.01 inSnowLight Snow
4:53 PM33.8 °F32.0 °F93 %29.57 in1.2 miSSW (200°)5.8 mph0.01 inSnowLight Snow
5:13 PM33.8 °F32.0 °F93 %29.56 in1.5 miSouth (190°)8.1 mphSnowLight Snow
5:33 PM33.8 °F32.0 °F93 %29.56 in7.0 miSW (220°)6.9 mph0.01 inSnowLight Snow
5:53 PM33.8 °F32.0 °F93 %29.56 in7.0 miSW (230°)6.9 mph0.01 inOvercast
6:13 PM33.8 °F32.0 °F93 %29.56 in7.0 miSW (220°)5.8 mphOvercast
6:33 PM33.8 °F32.0 °F93 %29.56 in7.0 miWSW (240°)3.5 mphOvercast
6:53 PM33.8 °F32.0 °F93 %29.56 in10.0 miWSW (250°)6.9 mphOvercast
7:13 PM33.8 °F32.0 °F93 %29.57 in10.0 miWest (270°)8.1 mphOvercast
7:33 PM33.8 °F32.0 °F93 %29.58 in10.0 miWNW (300°)13.8 mphOvercast
7:53 PM33.8 °F30.2 °F87 %29.59 in10.0 miNW (310°)16.1 mph21.9 mphOvercast
8:13 PM33.8 °F30.2 °F87 %29.59 in10.0 miNW (320°)17.3 mphOvercast
8:33 PM32.0 °F30.2 °F93 %29.60 in10.0 miNNW (330°)15.0 mphOvercast
8:54 PM30.2 °F28.4 °F93 %29.61 in5.0 miNNW (340°)18.4 mph24.2 mphSnowLight Snow
9:13 PM30.2 °F28.4 °F93 %29.62 in3.0 miNNW (340°)16.1 mphSnowLight Snow
9:33 PM30.2 °F28.4 °F93 %29.63 in2.5 miNNW (330°)17.3 mph20.7 mphSnowLight Snow
9:53 PM30.2 °F28.4 °F93 %29.64 in3.0 miNNW (330°)16.1 mphSnowLight Snow
10:14 PM30.2 °F28.4 °F93 %29.65 in4.0 miNNW (330°)18.4 mphSnowLight Snow
10:33 PM30.2 °F28.4 °F93 %29.66 in4.0 miNNW (330°)18.4 mphSnowLight Snow
10:53 PM28.4 °F26.6 °F93 %29.67 in4.0 miNNW (330°)18.4 mph23.0 mphSnowLight Snow
11:13 PM28.4 °F26.6 °F93 %29.68 in5.0 miNNW (330°)18.4 mph23.0 mphOvercast
11:33 PM26.6 °F24.8 °F93 %29.70 in7.0 miNW (320°)18.4 mphOvercast
11:54 PM26.6 °F24.8 °F93 %29.71 in7.0 miNW (320°)19.6 mphOvercast
Hourly data recorded from KAQP, located miles away from Milan, Minnesota







STORIES FROM OUR PARTNERS